| time (UTC) | temp C | wind direction | speed KPH | gust KPH | rain 1hr cm | rain 24hr cm | rain mn cm | humidity % | barometer mb |
| 20260507213030 | 9 | 0 | 0.0 | 4.8 | 0.00 | 0.00 | 0.00 | 51 | 1011.0 |
| 20260507211536 | 9 | 0 | 0.0 | 12.9 | 0.00 | 0.00 | 0.00 | 54 | 1011.1 |
| 20260507210033 | 9 | 0 | 0.0 | 14.5 | 0.00 | 0.00 | 0.00 | 55 | 1011.2 |
| 20260507204529 | 9 | 0 | 1.6 | 9.7 | 0.00 | 0.00 | 0.00 | 51 | 1011.3 |
| 20260507203035 | 10 | 265 | 0.0 | 11.3 | 0.00 | 0.00 | 0.00 | 52 | 1011.2 |
| 20260507201527 | 9 | 232 | 3.2 | 12.9 | 0.00 | 0.00 | 0.00 | 47 | 1011.5 |
| 20260507200025 | 10 | 0 | 0.0 | 12.9 | 0.00 | 0.00 | 0.00 | 49 | 1011.5 |
| 20260507194530 | 9 | 277 | 0.0 | 9.7 | 0.00 | 0.00 | 0.00 | 49 | 1011.6 |
| 20260507193034 | 10 | 263 | 3.2 | 9.7 | 0.00 | 0.00 | 0.00 | 47 | 1011.6 |
| 20260507191527 | 9 | 360 | 1.6 | 14.5 | 0.00 | 0.00 | 0.00 | 50 | 1011.8 |
| 20260507190031 | 9 | 253 | 1.6 | 9.7 | 0.00 | 0.00 | 0.00 | 49 | 1011.9 |
| 20260507184528 | 9 | 261 | 1.6 | 16.1 | 0.00 | 0.00 | 0.00 | 51 | 1011.9 |
| 20260507183042 | 8 | 0 | 1.6 | 14.5 | 0.00 | 0.00 | 0.00 | 52 | 1012.0 |
| 20260507181530 | 8 | 248 | 0.0 | 8.0 | 0.00 | 0.00 | 0.00 | 56 | 1012.2 |
| 20260507180033 | 8 | 0 | 0.0 | 4.8 | 0.00 | 0.00 | 0.00 | 60 | 1012.1 |
| 20260507174529 | 9 | 252 | 1.6 | 11.3 | 0.00 | 0.00 | 0.00 | 58 | 1012.3 |
| 20260507173028 | 8 | 232 | 0.0 | 6.4 | 0.00 | 0.00 | 0.00 | 59 | 1012.6 |
| 20260507171528 | 8 | 0 | 0.0 | 14.5 | 0.00 | 0.00 | 0.00 | 61 | 1012.7 |
| 20260507170030 | 8 | 217 | 1.6 | 14.5 | 0.00 | 0.00 | 0.00 | 63 | 1012.9 |
| 20260507164530 | 6 | 0 | 0.0 | 11.3 | 0.00 | 0.00 | 0.00 | 66 | 1013.3 |
| 20260507163037 | 5 | 0 | 0.0 | 11.3 | 0.00 | 0.00 | 0.00 | 69 | 1013.3 |
| 20260507161539 | 5 | 0 | 0.0 | 6.4 | 0.00 | 0.00 | 0.00 | 71 | 1013.5 |
| 20260507160042 | 5 | 0 | 0.0 | 4.8 | 0.00 | 0.00 | 0.00 | 72 | 1013.7 |
| 20260507154531 | 5 | 0 | 0.0 | 11.3 | 0.00 | 0.00 | 0.00 | 72 | 1013.6 |
| 20260507153031 | 5 | 0 | 0.0 | 1.6 | 0.00 | 0.00 | 0.00 | 72 | 1013.6 |
| 20260507151527 | 5 | 0 | 0.0 | 1.6 | 0.00 | 0.00 | 0.00 | 71 | 1013.7 |
| 20260507150029 | 5 | 0 | 0.0 | 0.0 | 0.00 | 0.00 | 0.00 | 71 | 1013.5 |
| 20260507144534 | 5 | 0 | 0.0 | 3.2 | 0.00 | 0.00 | 0.00 | 72 | 1013.7 |
| 20260507143029 | 5 | 0 | 0.0 | 3.2 | 0.00 | 0.00 | 0.00 | 72 | 1013.7 |
| 20260507141527 | 5 | 0 | 0.0 | 0.0 | 0.00 | 0.00 | 0.00 | 72 | 1013.6 |
| 20260507140029 | 5 | 0 | 0.0 | 1.6 | 0.00 | 0.00 | 0.00 | 71 | 1013.7 |
| 20260507134528 | 5 | 0 | 0.0 | 6.4 | 0.00 | 0.00 | 0.00 | 70 | 1013.7 |
| 20260507133028 | 5 | 0 | 0.0 | 1.6 | 0.00 | 0.00 | 0.00 | 70 | 1013.5 |
| 20260507131532 | 5 | 0 | 0.0 | 3.2 | 0.00 | 0.00 | 0.00 | 68 | 1013.5 |
| 20260507130029 | 6 | 175 | 0.0 | 4.8 | 0.00 | 0.00 | 0.00 | 69 | 1013.4 |
| 20260507124546 | 5 | 0 | 0.0 | 9.7 | 0.00 | 0.00 | 0.00 | 69 | 1013.3 |
| 20260507123030 | 5 | 0 | 0.0 | 3.2 | 0.00 | 0.00 | 0.00 | 69 | 1013.3 |
| 20260507121530 | 4 | 0 | 0.0 | 6.4 | 0.00 | 0.00 | 0.00 | 62 | 1013.3 |
| 20260507120029 | 2 | 0 | 0.0 | 6.4 | 0.00 | 0.00 | 0.00 | 50 | 1013.2 |
| 20260507114529 | 0 | 0 | 0.0 | 0.0 | 0.00 | 0.00 | 0.00 | 52 | 1012.9 |
| 20260507113028 | 0 | 0 | 0.0 | 0.0 | 0.00 | 0.00 | 0.00 | 56 | 1012.8 |
| 20260507111530 | 0 | 0 | 0.0 | 0.0 | 0.00 | 0.00 | 0.00 | 59 | 1012.6 |
| 20260507110031 | 0 | 0 | 0.0 | 0.0 | 0.00 | 0.00 | 0.00 | 60 | 1012.3 |
| 20260507104528 | 0 | 0 | 0.0 | 0.0 | 0.00 | 0.00 | 0.00 | 61 | 1012.3 |
| 20260507103029 | 0 | 0 | 0.0 | 0.0 | 0.00 | 0.00 | 0.00 | 62 | 1012.3 |
| 20260507101527 | 0 | 0 | 0.0 | 0.0 | 0.00 | 0.00 | 0.00 | 62 | 1012.2 |
| 20260507100029 | 0 | 0 | 0.0 | 0.0 | 0.00 | 0.00 | 0.00 | 62 | 1012.2 |
| 20260507094530 | 0 | 0 | 0.0 | 0.0 | 0.00 | 0.00 | 0.00 | 66 | 1012.2 |
| 20260507093036 | 0 | 0 | 0.0 | 0.0 | 0.00 | 0.00 | 0.00 | 68 | 1012.3 |
| 20260507091538 | 0 | 0 | 0.0 | 0.0 | 0.00 | 0.00 | 0.00 | 71 | 1012.3 |
| 20260507090026 | 0 | 0 | 0.0 | 0.0 | 0.00 | 0.00 | 0.00 | 74 | 1012.4 |
| 20260507084533 | 0 | 0 | 0.0 | 0.0 | 0.00 | 0.00 | 0.00 | 76 | 1012.4 |
| 20260507083030 | 0 | 0 | 0.0 | 0.0 | 0.00 | 0.00 | 0.00 | 77 | 1012.5 |
| 20260507081529 | 0 | 0 | 0.0 | 0.0 | 0.00 | 0.00 | 0.00 | 77 | 1012.6 |
| 20260507080028 | 1 | 0 | 0.0 | 0.0 | 0.00 | 0.00 | 0.00 | 77 | 1012.7 |
| 20260507074529 | 1 | 0 | 0.0 | 0.0 | 0.00 | 0.00 | 0.00 | 77 | 1012.7 |
| 20260507073030 | 2 | 0 | 0.0 | 0.0 | 0.00 | 0.00 | 0.00 | 75 | 1012.9 |
| 20260507071528 | 2 | 0 | 0.0 | 0.0 | 0.00 | 0.00 | 0.00 | 74 | 1012.9 |
| 20260507070034 | 3 | 0 | 0.0 | 0.0 | 0.00 | 0.00 | 0.00 | 73 | 1013.0 |
| 20260507064529 | 3 | 0 | 0.0 | 0.0 | 0.00 | 0.00 | 0.00 | 72 | 1013.1 |
| 20260507063040 | 3 | 0 | 0.0 | 0.0 | 0.00 | 0.00 | 0.00 | 72 | 1013.1 |
| 20260507061532 | 3 | 0 | 0.0 | 0.0 | 0.00 | 0.00 | 0.00 | 73 | 1013.1 |
| 20260507060040 | 3 | 0 | 0.0 | 0.0 | 0.00 | 0.00 | 0.00 | 74 | 1013.3 |
| 20260507054527 | 3 | 0 | 0.0 | 0.0 | 0.00 | 0.00 | 0.00 | 74 | 1013.4 |
| 20260507053028 | 3 | 0 | 0.0 | 0.0 | 0.00 | 0.00 | 0.00 | 74 | 1013.4 |
| 20260507051532 | 3 | 0 | 0.0 | 0.0 | 0.00 | 0.00 | 0.00 | 75 | 1013.3 |
| 20260507050034 | 3 | 0 | 0.0 | 0.0 | 0.00 | 0.00 | 0.00 | 76 | 1013.3 |
| 20260507044528 | 2 | 0 | 0.0 | 0.0 | 0.00 | 0.00 | 0.00 | 77 | 1013.2 |
| 20260507043029 | 2 | 0 | 0.0 | 0.0 | 0.00 | 0.00 | 0.00 | 77 | 1013.1 |
| 20260507041528 | 3 | 0 | 0.0 | 0.0 | 0.00 | 0.00 | 0.00 | 77 | 1013.2 |
| 20260507040028 | 3 | 0 | 0.0 | 0.0 | 0.00 | 0.00 | 0.00 | 76 | 1013.1 |
| 20260507034535 | 4 | 0 | 0.0 | 0.0 | 0.00 | 0.00 | 0.00 | 74 | 1013.1 |
| 20260507033030 | 5 | 0 | 0.0 | 0.0 | 0.00 | 0.00 | 0.00 | 74 | 1013.1 |
| 20260507031527 | 5 | 0 | 0.0 | 0.0 | 0.00 | 0.00 | 0.00 | 73 | 1013.1 |
| 20260507030030 | 5 | 0 | 0.0 | 0.0 | 0.00 | 0.00 | 0.00 | 69 | 1013.2 |
| 20260507024528 | 5 | 0 | 0.0 | 1.6 | 0.00 | 0.00 | 0.00 | 68 | 1013.0 |
| 20260507023028 | 5 | 0 | 0.0 | 1.6 | 0.00 | 0.00 | 0.00 | 67 | 1012.7 |
| 20260507021529 | 5 | 0 | 0.0 | 6.4 | 0.00 | 0.00 | 0.00 | 66 | 1012.7 |
| 20260507020039 | 5 | 0 | 0.0 | 3.2 | 0.00 | 0.00 | 0.00 | 66 | 1012.7 |
| 20260507014529 | 6 | 0 | 0.0 | 0.0 | 0.00 | 0.00 | 0.00 | 65 | 1012.5 |
| 20260507013044 | 6 | 0 | 0.0 | 0.0 | 0.00 | 0.00 | 0.00 | 66 | 1012.4 |
| 20260507011526 | 6 | 0 | 0.0 | 0.0 | 0.00 | 0.00 | 0.00 | 65 | 1012.3 |
| 20260507010036 | 6 | 0 | 0.0 | 0.0 | 0.00 | 0.00 | 0.00 | 67 | 1012.2 |
| 20260507004530 | 6 | 0 | 0.0 | 1.6 | 0.00 | 0.00 | 0.00 | 65 | 1012.2 |
| 20260507003029 | 6 | 0 | 0.0 | 8.0 | 0.00 | 0.00 | 0.00 | 63 | 1012.3 |
| 20260507001530 | 6 | 0 | 0.0 | 1.6 | 0.00 | 0.00 | 0.00 | 60 | 1012.3 |
| 20260507000028 | 6 | 0 | 0.0 | 0.0 | 0.00 | 0.00 | 0.00 | 59 | 1012.3 |
| 20260506234535 | 7 | 0 | 0.0 | 0.0 | 0.00 | 0.00 | 0.00 | 57 | 1012.3 |
| 20260506233049 | 7 | 0 | 0.0 | 0.0 | 0.00 | 0.00 | 0.00 | 60 | 1012.4 |
| 20260506231530 | 7 | 0 | 0.0 | 0.0 | 0.00 | 0.00 | 0.00 | 58 | 1012.5 |
| 20260506230030 | 7 | 0 | 0.0 | 0.0 | 0.00 | 0.00 | 0.00 | 59 | 1012.5 |
| 20260506224528 | 7 | 0 | 0.0 | 1.6 | 0.00 | 0.00 | 0.00 | 57 | 1012.6 |
| 20260506223028 | 7 | 0 | 0.0 | 1.6 | 0.00 | 0.00 | 0.00 | 58 | 1012.6 |
| 20260506221530 | 7 | 0 | 0.0 | 1.6 | 0.00 | 0.00 | 0.00 | 57 | 1012.7 |
| 20260506220031 | 7 | 0 | 0.0 | 3.2 | 0.00 | 0.00 | 0.00 | 58 | 1012.8 |
| 20260506214529 | 7 | 0 | 0.0 | 3.2 | 0.00 | 0.00 | 0.00 | 57 | 1012.7 |